Regional Weather Roundup
Issued by NWS

Home | Current Version | Previous Version | Graphics & Text | Print | Product List | Glossary On
Versions: 1 2 3 4 5 6 7 8 9 10 11 12 13 14 15 16 17 18 19 20 21 22 23 24 25 26 27 28 29 30 31 32 33 34 35 36 37 38 39 40 41 42 43 44 45 46 47 48 49 50
000
ASUS43 KTOP 210908
RWRKS

WEATHER ROUNDUP FOR KANSAS
NATIONAL WEATHER SERVICE GOODLAND KS
300 AM CST TUE FEB 21 2017

NOTE:  "FAIR" INDICATES FEW OR NO CLOUDS BELOW 12,000 FEET WITH NO
SIGNIFICANT WEATHER AND/OR OBSTRUCTIONS TO VISIBILITY.

KSZ001>006-013>018-027>032-041>047-211000-
NORTHWEST KANSAS

CITY           SKY/WX    TMP DP  RH WIND       PRES   REMARKS
GOODLAND       CLOUDY    42  14  32 SW16      30.00S
HAYS           CLOUDY    27  24  89 W7        30.02R
HILL CITY      CLEAR     32  25  75 W5        30.02R
RUSSELL        CLOUDY    32  28  85 SW6       29.99S
$$

KSZ061>065-074>080-084>089-211000-
SOUTHWEST KANSAS

CITY           SKY/WX    TMP DP  RH WIND       PRES   REMARKS
DODGE CITY     CLOUDY    32  23  69 SW6       30.05R
GARDEN CITY    CLOUDY    32  18  56 W8        30.05R
GREAT BEND     CLOUDY    31  28  89 W3        30.02R
LIBERAL        CLOUDY    34  14  44 W5        30.07S
PRATT          CLOUDY    32  28  86 NW8       30.02S
$$

KSZ066>073-081>083-090>101-211000-
SOUTHEAST KANSAS

CITY           SKY/WX    TMP DP  RH WIND       PRES   REMARKS
CHANUTE        FOG       47  46  97 N6        29.92S VSB 3/4
COFFEYVILLE    FOG       46  46 100 CALM      29.91F VSB 1/4
HUTCHINSON     CLEAR     43  37  79 N6        29.99R
MEDICINE LODGE   N/A     40  34  79 N3        30.00S
NEWTON         CLEAR     43  39  86 N8        29.98S
PARSONS        FOG       43  43 100 NW3       29.92S VSB 1/4
WICHITA INTL   CLEAR     46  41  82 N6        29.98R
WICHITA JABRA  CLEAR     44  42  93 N9        29.98R
WICHITA MCCONL CLEAR     47  42  82 NE8       29.97S
WINFIELD       CLEAR     45  43  93 N7        29.97R
$$

KSZ007>012-019>026-033>040-048>060-102>105-211000-
NORTHEAST KANSAS

CITY           SKY/WX    TMP DP  RH WIND       PRES   REMARKS
CONCORDIA      CLEAR     39  35  86 VRB3      29.98S
EMPORIA        CLEAR     47  44  90 NW10      29.97R
LAWRENCE       PTCLDY    47  45  93 NW7       29.95R
MANHATTAN      CLEAR     37  35  92 CALM      29.99R
MARYSVILLE     CLEAR     34  34 100 N3        29.98R FOG
OLATHE IND     CLOUDY    50  48  93 N12       29.94R
OLATHE EXE     CLOUDY    53  51  93 N7        29.93R
SALINA         CLEAR     42  37  82 CALM      29.99S
TOPEKA BILLARD PTCLDY    49  44  83 NW3       29.97R
TOPEKA FORBES  CLOUDY    46  43  89 NW7       29.97R
$$



USA.gov is the U.S. government's official web portal to all federal, state and local government web resources and services.